Tracking 29892 objects as of 21-Nov-2024
HD Live streaming from Space Station
objects crossing your sky now

LINUSS1

Track LINUSS1 now!


NORAD ID: 55246
Int'l Code: 2022-144G
Perigee: 36,106.0 km
Apogee: 36,172.2 km
Inclination: 4.0 °
Period: 1,453.8 minutes
Semi major axis: 42510 km
RCS: Unknown
Launch date: November 1, 2022
Source: United States (US)
Launch site: AIR FORCE EASTERN TEST RANGE (AFETR)
Your satellite tracking list
Your tracking list is empty




NASA's NSSDC Master Catalog

Two Line Element Set (TLE):
1 55246U 22144G   24325.45425995  .00000074  00000-0  00000-0 0  9995
2 55246   3.9704  67.4318 0007790 272.6450 118.3724  0.99052410  5983
Source of the keplerian elements: AFSPC